Time,TemperatureF,DewpointF,PressureIn,WindDirection,WindDirectionDegrees,WindSpeedMPH,WindSpeedGustMPH,Humidity,HourlyPrecipIn,Conditions,Clouds,dailyrainin,SoftwareType,DateUTC
2014-01-13 00:01:00,53.2,48.8,30.13,East,80,0.0,0.0,85,0.00,,---,0.00,VWS V14.01,2014-01-13 05:01:00,
2014-01-13 00:06:00,53.0,48.9,30.13,ENE,63,0.0,0.0,86,0.00,,---,0.00,VWS V14.01,2014-01-13 05:06:00,
2014-01-13 00:11:00,53.0,48.9,30.13,ENE,70,0.0,0.0,86,0.00,,---,0.00,VWS V14.01,2014-01-13 05:11:00,
2014-01-13 00:16:00,52.9,48.8,30.13,ENE,65,0.0,0.0,86,0.00,,---,0.00,VWS V14.01,2014-01-13 05:16:00,
2014-01-13 00:21:00,52.8,48.7,30.12,ENE,65,0.0,0.0,86,0.00,,---,0.00,VWS V14.01,2014-01-13 05:21:00,
2014-01-13 00:26:00,52.6,48.5,30.12,NE,51,0.0,0.0,86,0.00,,---,0.00,VWS V14.01,2014-01-13 05:26:00,
2014-01-13 00:31:00,52.6,48.8,30.12,NE,51,0.0,0.0,87,0.00,,---,0.00,VWS V14.01,2014-01-13 05:31:00,
2014-01-13 00:36:00,52.5,48.8,30.12,NE,51,0.0,0.0,87,0.00,,---,0.00,VWS V14.01,2014-01-13 05:36:00,
2014-01-13 00:41:00,52.3,48.5,30.12,NE,42,0.0,0.0,87,0.00,,---,0.00,VWS V14.01,2014-01-13 05:41:00,
2014-01-13 00:46:00,52.1,48.4,30.12,NE,42,0.0,0.0,87,0.00,,---,0.00,VWS V14.01,2014-01-13 05:46:00,
2014-01-13 00:51:00,51.8,48.4,30.12,NE,43,0.0,0.0,88,0.00,,---,0.00,VWS V14.01,2014-01-13 05:51:00,
2014-01-13 00:56:00,51.6,48.2,30.11,NE,42,0.0,1.0,88,0.00,,---,0.00,VWS V14.01,2014-01-13 05:56:00,
2014-01-13 01:01:00,51.5,48.1,30.11,NE,43,0.0,0.0,88,0.00,,---,0.00,VWS V14.01,2014-01-13 06:01:00,
2014-01-13 01:06:00,51.4,48.0,30.11,NE,42,0.0,0.0,88,0.00,,---,0.00,VWS V14.01,2014-01-13 06:06:00,
2014-01-13 01:11:00,51.3,48.2,30.11,NE,42,0.0,0.0,89,0.00,,---,0.00,VWS V14.01,2014-01-13 06:11:00,
2014-01-13 01:16:00,51.2,48.1,30.11,NE,42,0.0,0.0,89,0.00,,---,0.00,VWS V14.01,2014-01-13 06:16:00,
2014-01-13 01:21:00,51.0,47.9,30.11,NE,42,0.0,0.0,89,0.00,,---,0.00,VWS V14.01,2014-01-13 06:21:00,
2014-01-13 01:26:00,51.0,48.2,30.12,NE,42,0.0,0.0,90,0.00,,---,0.00,VWS V14.01,2014-01-13 06:26:00,
2014-01-13 01:31:00,50.9,48.1,30.12,NE,42,0.0,0.0,90,0.00,,---,0.00,VWS V14.01,2014-01-13 06:31:00,
2014-01-13 01:36:00,50.8,48.3,30.12,NE,42,0.0,0.0,91,0.00,,---,0.00,VWS V14.01,2014-01-13 06:36:00,
2014-01-13 01:41:00,50.9,48.4,30.11,NE,44,0.0,0.0,91,0.00,,---,0.00,VWS V14.01,2014-01-13 06:41:00,
2014-01-13 01:46:00,50.9,48.4,30.11,NE,53,0.0,0.0,91,0.00,,---,0.00,VWS V14.01,2014-01-13 06:46:00,
2014-01-13 01:51:00,51.0,48.5,30.11,NE,56,0.0,0.0,91,0.00,,---,0.00,VWS V14.01,2014-01-13 06:51:00,
2014-01-13 01:56:00,51.0,48.5,30.11,ENE,65,0.0,0.0,91,0.00,,---,0.00,VWS V14.01,2014-01-13 06:56:00,
2014-01-13 02:01:00,51.0,48.5,30.11,ENE,64,0.0,0.0,91,0.00,,---,0.00,VWS V14.01,2014-01-13 07:01:00,
2014-01-13 02:06:00,51.0,48.8,30.11,ENE,60,0.0,0.0,92,0.00,,---,0.00,VWS V14.01,2014-01-13 07:06:00,
2014-01-13 02:11:00,51.1,48.9,30.11,ENE,58,0.0,0.0,92,0.00,,---,0.00,VWS V14.01,2014-01-13 07:11:00,
2014-01-13 02:16:00,51.1,48.9,30.11,ENE,59,0.0,1.0,92,0.00,,---,0.00,VWS V14.01,2014-01-13 07:16:00,
2014-01-13 02:21:00,51.1,48.9,30.11,ENE,59,0.0,0.0,92,0.00,,---,0.00,VWS V14.01,2014-01-13 07:21:00,
2014-01-13 02:26:00,51.1,48.9,30.11,ENE,59,0.0,1.0,92,0.00,,---,0.00,VWS V14.01,2014-01-13 07:26:00,
2014-01-13 02:31:00,51.1,48.9,30.10,NNE,18,0.0,0.0,92,0.00,,---,0.00,VWS V14.01,2014-01-13 07:31:00,
2014-01-13 02:36:00,51.1,49.2,30.10,East,80,0.0,0.0,93,0.00,,---,0.00,VWS V14.01,2014-01-13 07:36:00,
2014-01-13 02:41:00,51.2,49.2,30.10,ENE,70,0.0,0.0,93,0.00,,---,0.00,VWS V14.01,2014-01-13 07:41:00,
2014-01-13 02:46:00,51.2,49.2,30.10,ENE,65,0.0,1.0,93,0.00,,---,0.00,VWS V14.01,2014-01-13 07:46:00,
2014-01-13 02:51:00,51.2,49.2,30.10,ENE,66,0.0,0.0,93,0.00,,---,0.00,VWS V14.01,2014-01-13 07:51:00,
2014-01-13 02:56:00,51.1,49.2,30.09,North,6,0.0,0.0,93,0.00,,---,0.00,VWS V14.01,2014-01-13 07:56:00,
2014-01-13 03:01:00,51.1,49.2,30.09,North,6,0.0,0.0,93,0.00,,---,0.00,VWS V14.01,2014-01-13 08:01:00,
2014-01-13 03:06:00,51.0,49.0,30.09,North,6,0.0,0.0,93,0.00,,---,0.00,VWS V14.01,2014-01-13 08:06:00,
2014-01-13 03:11:00,51.0,49.0,30.09,North,6,0.0,0.0,93,0.00,,---,0.00,VWS V14.01,2014-01-13 08:11:00,
2014-01-13 03:16:00,50.9,49.0,30.09,North,6,0.0,0.0,93,0.00,,---,0.00,VWS V14.01,2014-01-13 08:16:00,
2014-01-13 03:21:00,50.9,49.2,30.09,NNE,33,0.0,0.0,94,0.00,,---,0.00,VWS V14.01,2014-01-13 08:21:00,
2014-01-13 03:26:00,50.9,49.2,30.09,NNE,33,0.0,0.0,94,0.00,,---,0.00,VWS V14.01,2014-01-13 08:26:00,
2014-01-13 03:31:00,50.9,49.2,30.09,NE,49,0.0,0.0,94,0.00,,---,0.00,VWS V14.01,2014-01-13 08:31:00,
2014-01-13 03:36:00,50.9,49.2,30.09,NE,49,0.0,0.0,94,0.00,,---,0.00,VWS V14.01,2014-01-13 08:36:00,
2014-01-13 03:41:00,51.0,49.3,30.09,NE,49,0.0,0.0,94,0.00,,---,0.00,VWS V14.01,2014-01-13 08:41:00,
2014-01-13 03:46:00,51.0,49.3,30.09,NE,53,0.0,0.0,94,0.00,,---,0.00,VWS V14.01,2014-01-13 08:46:00,
2014-01-13 03:51:00,51.0,49.3,30.09,NE,53,0.0,0.0,94,0.00,,---,0.00,VWS V14.01,2014-01-13 08:51:00,
2014-01-13 03:56:00,51.0,49.3,30.09,NE,53,0.0,0.0,94,0.00,,---,0.00,VWS V14.01,2014-01-13 08:56:00,
2014-01-13 04:01:00,51.0,49.3,30.09,NE,53,0.0,0.0,94,0.00,,---,0.00,VWS V14.01,2014-01-13 09:01:00,
2014-01-13 04:06:00,51.0,49.3,30.09,NE,53,0.0,0.0,94,0.00,,---,0.00,VWS V14.01,2014-01-13 09:06:00,
2014-01-13 04:11:00,51.1,49.4,30.09,NE,51,1.0,1.0,94,0.00,,---,0.00,VWS V14.01,2014-01-13 09:11:00,
2014-01-13 04:16:00,51.1,49.4,30.09,NE,53,0.0,0.0,94,0.00,,---,0.00,VWS V14.01,2014-01-13 09:16:00,
2014-01-13 04:21:00,51.1,49.4,30.09,NE,53,0.0,0.0,94,0.00,,---,0.00,VWS V14.01,2014-01-13 09:21:00,
2014-01-13 04:26:00,51.1,49.4,30.09,NE,53,0.0,0.0,94,0.00,,---,0.00,VWS V14.01,2014-01-13 09:26:00,
2014-01-13 04:31:00,51.1,49.4,30.09,NE,53,0.0,0.0,94,0.00,,---,0.00,VWS V14.01,2014-01-13 09:31:00,
2014-01-13 04:36:00,51.1,49.4,30.09,NE,51,0.0,0.0,94,0.00,,---,0.00,VWS V14.01,2014-01-13 09:36:00,
2014-01-13 04:41:00,51.1,49.4,30.09,NE,34,0.0,0.0,94,0.00,,---,0.00,VWS V14.01,2014-01-13 09:41:00,
2014-01-13 04:46:00,51.1,49.4,30.09,NNE,18,0.0,0.0,94,0.00,,---,0.00,VWS V14.01,2014-01-13 09:46:00,
2014-01-13 04:51:00,51.1,49.4,30.09,NNE,18,0.0,0.0,94,0.00,,---,0.00,VWS V14.01,2014-01-13 09:51:00,
2014-01-13 04:56:00,51.1,49.4,30.09,NNE,18,0.0,0.0,94,0.00,,---,0.00,VWS V14.01,2014-01-13 09:56:00,
2014-01-13 05:01:00,51.0,49.3,30.09,NNE,33,1.0,1.0,94,0.00,,---,0.00,VWS V14.01,2014-01-13 10:01:00,
2014-01-13 05:06:00,51.0,49.3,30.09,NNE,33,0.0,0.0,94,0.00,,---,0.00,VWS V14.01,2014-01-13 10:06:00,
2014-01-13 05:11:00,51.0,49.6,30.09,NNE,33,0.0,0.0,95,0.00,,---,0.00,VWS V14.01,2014-01-13 10:11:00,
2014-01-13 05:16:00,50.9,49.5,30.09,NNE,33,0.0,0.0,95,0.00,,---,0.00,VWS V14.01,2014-01-13 10:16:00,
2014-01-13 05:21:00,50.9,49.5,30.09,NNE,33,0.0,0.0,95,0.00,,---,0.00,VWS V14.01,2014-01-13 10:21:00,
2014-01-13 05:26:00,50.9,49.5,30.09,NNE,33,0.0,0.0,95,0.00,,---,0.00,VWS V14.01,2014-01-13 10:26:00,
2014-01-13 05:31:00,50.8,49.4,30.09,NNE,33,0.0,0.0,95,0.00,,---,0.00,VWS V14.01,2014-01-13 10:31:00,
2014-01-13 05:36:00,50.8,49.4,30.09,NNE,33,0.0,0.0,95,0.00,,---,0.00,VWS V14.01,2014-01-13 10:36:00,
2014-01-13 05:41:00,50.7,49.3,30.09,NE,34,0.0,1.0,95,0.00,,---,0.00,VWS V14.01,2014-01-13 10:41:00,
2014-01-13 05:46:00,50.7,49.3,30.10,NNE,33,0.0,0.0,95,0.00,,---,0.00,VWS V14.01,2014-01-13 10:46:00,
2014-01-13 05:51:00,50.7,49.3,30.09,NE,34,0.0,0.0,95,0.00,,---,0.00,VWS V14.01,2014-01-13 10:51:00,
2014-01-13 05:55:00,50.7,49.3,30.09,NE,34,0.0,0.0,95,0.00,,---,0.00,VWS V14.01,2014-01-13 10:55:00,
2014-01-13 06:00:00,50.7,49.3,30.09,NE,34,0.0,0.0,95,0.00,,---,0.00,VWS V14.01,2014-01-13 11:00:00,
2014-01-13 06:06:00,50.7,49.3,30.09,NE,34,0.0,0.0,95,0.00,,---,0.00,VWS V14.01,2014-01-13 11:06:00,
2014-01-13 06:10:00,50.7,49.3,30.09,NE,34,0.0,0.0,95,0.00,,---,0.00,VWS V14.01,2014-01-13 11:10:00,
2014-01-13 06:15:00,50.6,49.2,30.09,NE,34,0.0,0.0,95,0.00,,---,0.00,VWS V14.01,2014-01-13 11:15:00,
2014-01-13 06:20:00,50.6,49.2,30.09,NE,34,0.0,0.0,95,0.00,,---,0.00,VWS V14.01,2014-01-13 11:20:00,
2014-01-13 06:25:00,50.6,49.5,30.09,NE,34,0.0,1.0,96,0.00,,---,0.00,VWS V14.01,2014-01-13 11:25:00,
2014-01-13 06:30:00,50.7,49.6,30.09,NE,34,0.0,0.0,96,0.00,,---,0.00,VWS V14.01,2014-01-13 11:30:00,
2014-01-13 06:35:00,50.7,49.6,30.09,NE,34,0.0,0.0,96,0.00,,---,0.00,VWS V14.01,2014-01-13 11:35:00,
2014-01-13 06:40:00,50.8,49.7,30.09,NNE,30,0.0,1.0,96,0.00,,---,0.00,VWS V14.01,2014-01-13 11:40:00,
2014-01-13 06:45:00,50.8,49.7,30.09,NNE,30,0.0,0.0,96,0.00,,---,0.00,VWS V14.01,2014-01-13 11:45:00,
2014-01-13 06:50:00,50.8,49.4,30.09,NNE,30,0.0,0.0,95,0.00,,---,0.00,VWS V14.01,2014-01-13 11:50:00,
2014-01-13 06:55:00,50.7,49.6,30.09,NNE,30,0.0,1.0,96,0.00,,---,0.00,VWS V14.01,2014-01-13 11:55:00,
2014-01-13 07:00:00,50.8,49.7,30.09,NNE,30,0.0,0.0,96,0.00,,---,0.00,VWS V14.01,2014-01-13 12:00:00,
2014-01-13 07:05:00,50.9,49.8,30.09,NNE,30,0.0,0.0,96,0.00,,---,0.00,VWS V14.01,2014-01-13 12:05:00,
2014-01-13 07:10:00,51.0,49.9,30.10,NNE,30,0.0,0.0,96,0.00,,---,0.00,VWS V14.01,2014-01-13 12:10:00,
2014-01-13 07:15:00,51.0,49.9,30.09,NNE,30,0.0,0.0,96,0.00,,---,0.00,VWS V14.01,2014-01-13 12:15:00,
2014-01-13 07:20:00,51.1,50.0,30.10,NNE,30,0.0,0.0,96,0.00,,---,0.00,VWS V14.01,2014-01-13 12:20:00,
2014-01-13 07:25:00,51.1,50.0,30.10,NNE,30,0.0,0.0,96,0.00,,---,0.00,VWS V14.01,2014-01-13 12:25:00,
2014-01-13 07:30:00,51.2,50.1,30.10,NNE,30,0.0,0.0,96,0.00,,---,0.00,VWS V14.01,2014-01-13 12:30:00,
2014-01-13 07:35:00,51.4,50.3,30.10,NNE,30,0.0,0.0,96,0.00,,---,0.00,VWS V14.01,2014-01-13 12:35:00,
2014-01-13 07:40:00,51.6,50.5,30.10,NNE,30,0.0,0.0,96,0.00,,---,0.00,VWS V14.01,2014-01-13 12:40:00,
2014-01-13 07:45:00,51.7,50.6,30.11,NNE,30,0.0,0.0,96,0.00,,---,0.00,VWS V14.01,2014-01-13 12:45:00,
2014-01-13 07:50:00,52.0,50.9,30.11,NNE,30,0.0,0.0,96,0.00,,---,0.00,VWS V14.01,2014-01-13 12:50:00,
2014-01-13 07:55:00,52.2,51.1,30.11,NNE,30,0.0,0.0,96,0.00,,---,0.00,VWS V14.01,2014-01-13 12:55:00,
2014-01-13 08:00:00,52.5,51.4,30.11,NNE,30,0.0,0.0,96,0.00,,---,0.00,VWS V14.01,2014-01-13 13:00:00,
2014-01-13 08:05:00,52.8,51.7,30.11,NNE,30,0.0,0.0,96,0.00,,---,0.00,VWS V14.01,2014-01-13 13:05:00,
2014-01-13 08:10:00,53.2,51.8,30.11,East,90,0.0,1.0,95,0.00,,---,0.00,VWS V14.01,2014-01-13 13:10:00,
2014-01-13 08:15:00,53.7,52.3,30.11,ENE,63,0.0,1.0,95,0.00,,---,0.00,VWS V14.01,2014-01-13 13:15:00,
2014-01-13 08:20:00,54.1,52.7,30.11,NE,53,0.0,1.0,95,0.00,,---,0.00,VWS V14.01,2014-01-13 13:20:00,
2014-01-13 08:25:00,54.5,53.1,30.11,ENE,64,1.0,1.0,95,0.00,,---,0.00,VWS V14.01,2014-01-13 13:25:00,
2014-01-13 08:30:00,55.0,53.3,30.11,ENE,63,0.0,0.0,94,0.00,,---,0.00,VWS V14.01,2014-01-13 13:30:00,
2014-01-13 08:35:00,55.6,53.9,30.11,ENE,65,0.0,2.0,94,0.00,,---,0.00,VWS V14.01,2014-01-13 13:35:00,
2014-01-13 08:40:00,56.3,54.6,30.11,ESE,107,0.0,1.0,94,0.00,,---,0.00,VWS V14.01,2014-01-13 13:40:00,
2014-01-13 08:45:00,57.1,55.4,30.12,East,96,0.0,0.0,94,0.00,,---,0.00,VWS V14.01,2014-01-13 13:45:00,
2014-01-13 08:50:00,57.8,56.1,30.12,ENE,62,0.0,1.0,94,0.00,,---,0.00,VWS V14.01,2014-01-13 13:50:00,
2014-01-13 08:55:00,58.7,56.7,30.12,ENE,63,1.0,1.0,93,0.00,,---,0.00,VWS V14.01,2014-01-13 13:55:00,
2014-01-13 09:00:00,59.9,57.9,30.12,ESE,110,1.0,1.0,93,0.00,,---,0.00,VWS V14.01,2014-01-13 14:00:00,
2014-01-13 09:05:00,60.8,58.5,30.12,ENE,61,1.0,1.0,92,0.00,,---,0.00,VWS V14.01,2014-01-13 14:05:00,
2014-01-13 09:10:00,61.5,58.5,30.12,East,89,0.0,0.0,90,0.00,,---,0.00,VWS V14.01,2014-01-13 14:10:00,
2014-01-13 09:15:00,62.0,58.7,30.12,ENE,78,0.0,1.0,89,0.00,,---,0.00,VWS V14.01,2014-01-13 14:15:00,
2014-01-13 09:20:00,62.7,59.4,30.11,ESE,113,1.0,1.0,89,0.00,,---,0.00,VWS V14.01,2014-01-13 14:20:00,
2014-01-13 09:25:00,63.3,59.7,30.11,ENE,69,0.0,1.0,88,0.00,,---,0.00,VWS V14.01,2014-01-13 14:25:00,
2014-01-13 09:30:00,63.8,59.9,30.11,ENE,74,0.0,3.0,87,0.00,,---,0.00,VWS V14.01,2014-01-13 14:30:00,
2014-01-13 09:35:00,64.4,60.5,30.11,SE,133,0.0,2.0,87,0.00,,---,0.00,VWS V14.01,2014-01-13 14:35:00,
2014-01-13 09:40:00,65.1,61.1,30.11,East,92,0.0,0.0,87,0.00,,---,0.00,VWS V14.01,2014-01-13 14:40:00,
2014-01-13 09:45:00,65.8,61.8,30.12,East,89,1.0,1.0,87,0.00,,---,0.00,VWS V14.01,2014-01-13 14:45:00,
2014-01-13 09:50:00,66.4,62.1,30.12,ESE,119,0.0,0.0,86,0.00,,---,0.00,VWS V14.01,2014-01-13 14:50:00,
2014-01-13 09:55:00,67.1,62.1,30.12,East,92,0.0,1.0,84,0.00,,---,0.00,VWS V14.01,2014-01-13 14:55:00,
2014-01-13 10:00:00,67.6,62.6,30.12,East,83,0.0,1.0,84,0.00,,---,0.00,VWS V14.01,2014-01-13 15:00:00,
2014-01-13 10:05:00,68.2,63.2,30.12,East,83,0.0,0.0,84,0.00,,---,0.00,VWS V14.01,2014-01-13 15:05:00,
2014-01-13 10:10:00,68.7,63.3,30.12,ENE,65,0.0,1.0,83,0.00,,---,0.00,VWS V14.01,2014-01-13 15:10:00,
2014-01-13 10:15:00,69.2,63.8,30.12,East,93,0.0,0.0,83,0.00,,---,0.00,VWS V14.01,2014-01-13 15:15:00,
2014-01-13 10:20:00,69.7,64.0,30.12,East,80,1.0,1.0,82,0.00,,---,0.00,VWS V14.01,2014-01-13 15:20:00,
2014-01-13 10:25:00,70.1,64.4,30.12,NE,34,0.0,1.0,82,0.00,,---,0.00,VWS V14.01,2014-01-13 15:25:00,
2014-01-13 10:30:00,70.7,64.9,30.11,East,95,0.0,1.0,82,0.00,,---,0.00,VWS V14.01,2014-01-13 15:30:00,
2014-01-13 10:35:00,71.4,66.0,30.11,ESE,110,0.0,0.0,83,0.00,,---,0.00,VWS V14.01,2014-01-13 15:35:00,
2014-01-13 10:40:00,72.2,66.4,30.11,East,98,0.0,1.0,82,0.00,,---,0.00,VWS V14.01,2014-01-13 15:40:00,
2014-01-13 10:45:00,72.9,66.7,30.11,East,96,0.0,0.0,81,0.00,,---,0.00,VWS V14.01,2014-01-13 15:45:00,
2014-01-13 10:50:00,73.4,66.9,30.11,East,99,1.0,1.0,80,0.00,,---,0.00,VWS V14.01,2014-01-13 15:50:00,
2014-01-13 10:55:00,73.9,67.3,30.10,ESE,115,0.0,1.0,80,0.00,,---,0.00,VWS V14.01,2014-01-13 15:55:00,
2014-01-13 11:00:00,74.3,67.4,30.10,ESE,112,0.0,1.0,79,0.00,,---,0.00,VWS V14.01,2014-01-13 16:00:00,
2014-01-13 11:05:00,74.4,67.1,30.10,ESE,107,0.0,1.0,78,0.00,,---,0.00,VWS V14.01,2014-01-13 16:05:00,
2014-01-13 11:10:00,74.8,67.9,30.09,East,99,0.0,0.0,79,0.00,,---,0.00,VWS V14.01,2014-01-13 16:10:00,
2014-01-13 11:15:00,75.3,68.0,30.09,East,101,0.0,1.0,78,0.00,,---,0.00,VWS V14.01,2014-01-13 16:15:00,
2014-01-13 11:20:00,75.8,68.1,30.09,East,101,1.0,1.0,77,0.00,,---,0.00,VWS V14.01,2014-01-13 16:20:00,
2014-01-13 11:25:00,76.0,67.9,30.09,SE,135,0.0,1.0,76,0.00,,---,0.00,VWS V14.01,2014-01-13 16:25:00,
2014-01-13 11:30:00,76.4,68.3,30.09,ESE,109,0.0,1.0,76,0.00,,---,0.00,VWS V14.01,2014-01-13 16:30:00,
2014-01-13 11:35:00,76.6,67.7,30.08,ESE,104,0.0,1.0,74,0.00,,---,0.00,VWS V14.01,2014-01-13 16:35:00,
2014-01-13 11:40:00,76.7,68.2,30.08,ESE,108,1.0,1.0,75,0.00,,---,0.00,VWS V14.01,2014-01-13 16:40:00,
2014-01-13 11:45:00,77.0,68.5,30.08,ESE,122,1.0,2.0,75,0.00,,---,0.00,VWS V14.01,2014-01-13 16:45:00,
2014-01-13 11:50:00,77.5,68.2,30.07,ESE,102,1.0,1.0,73,0.00,,---,0.00,VWS V14.01,2014-01-13 16:50:00,
2014-01-13 11:55:00,77.5,68.6,30.07,SE,131,1.0,1.0,74,0.00,,---,0.00,VWS V14.01,2014-01-13 16:55:00,
2014-01-13 12:00:00,77.5,68.6,30.07,East,100,0.0,1.0,74,0.00,,---,0.00,VWS V14.01,2014-01-13 17:00:00,
2014-01-13 12:05:00,77.6,68.7,30.06,SSE,155,0.0,1.0,74,0.00,,---,0.00,VWS V14.01,2014-01-13 17:05:00,
2014-01-13 12:10:00,77.5,68.2,30.06,ESE,113,0.0,1.0,73,0.00,,---,0.00,VWS V14.01,2014-01-13 17:10:00,
2014-01-13 12:15:00,77.2,68.3,30.06,East,95,0.0,1.0,74,0.00,,---,0.00,VWS V14.01,2014-01-13 17:15:00,
2014-01-13 12:20:00,77.3,68.4,30.06,East,84,0.0,1.0,74,0.00,,---,0.00,VWS V14.01,2014-01-13 17:20:00,
2014-01-13 12:25:00,77.5,68.6,30.05,ESE,108,0.0,1.0,74,0.00,,---,0.00,VWS V14.01,2014-01-13 17:25:00,
2014-01-13 12:30:00,77.6,67.9,30.05,South,169,0.0,1.0,72,0.00,,---,0.00,VWS V14.01,2014-01-13 17:30:00,
2014-01-13 12:35:00,77.8,68.1,30.05,SE,127,0.0,2.0,72,0.00,,---,0.00,VWS V14.01,2014-01-13 17:35:00,
2014-01-13 12:40:00,78.1,68.8,30.04,SSW,210,2.0,3.0,73,0.00,,---,0.00,VWS V14.01,2014-01-13 17:40:00,
2014-01-13 12:45:00,78.4,68.2,30.04,ESE,116,0.0,2.0,71,0.00,,---,0.00,VWS V14.01,2014-01-13 17:45:00,
2014-01-13 12:50:00,78.5,67.5,30.04,SSW,205,0.0,1.0,69,0.00,,---,0.00,VWS V14.01,2014-01-13 17:50:00,
2014-01-13 12:55:00,78.3,68.1,30.04,SSE,150,0.0,1.0,71,0.00,,---,0.00,VWS V14.01,2014-01-13 17:55:00,
2014-01-13 13:00:00,78.0,67.4,30.04,SSW,200,1.0,3.0,70,0.00,,---,0.00,VWS V14.01,2014-01-13 18:00:00,
2014-01-13 13:05:00,77.7,67.6,30.04,South,173,0.0,1.0,71,0.00,,---,0.00,VWS V14.01,2014-01-13 18:05:00,
2014-01-13 13:10:00,77.9,68.2,30.03,SE,129,0.0,1.0,72,0.00,,---,0.00,VWS V14.01,2014-01-13 18:10:00,
2014-01-13 13:15:00,78.7,68.5,30.03,ESE,109,1.0,2.0,71,0.00,,---,0.00,VWS V14.01,2014-01-13 18:15:00,
2014-01-13 13:20:00,79.0,68.0,30.03,SW,228,1.0,3.0,69,0.00,,---,0.00,VWS V14.01,2014-01-13 18:20:00,
2014-01-13 13:25:00,79.2,68.6,30.03,WSW,237,1.0,1.0,70,0.00,,---,0.00,VWS V14.01,2014-01-13 18:25:00,
2014-01-13 13:30:00,79.2,68.2,30.03,SSW,201,0.0,3.0,69,0.00,,---,0.00,VWS V14.01,2014-01-13 18:30:00,
2014-01-13 13:35:00,79.7,68.2,30.03,SW,227,1.0,3.0,68,0.00,,---,0.00,VWS V14.01,2014-01-13 18:35:00,
2014-01-13 13:40:00,79.5,68.0,30.03,SSW,194,0.0,1.0,68,0.00,,---,0.00,VWS V14.01,2014-01-13 18:40:00,
2014-01-13 13:45:00,79.3,67.8,30.02,South,184,1.0,2.0,68,0.00,,---,0.00,VWS V14.01,2014-01-13 18:45:00,
2014-01-13 13:50:00,79.5,67.6,30.02,SSE,155,0.0,2.0,67,0.00,,---,0.00,VWS V14.01,2014-01-13 18:50:00,
2014-01-13 13:55:00,79.5,67.6,30.02,South,185,2.0,3.0,67,0.00,,---,0.00,VWS V14.01,2014-01-13 18:55:00,
2014-01-13 14:00:00,79.4,67.5,30.02,WSW,257,2.0,2.0,67,0.00,,---,0.00,VWS V14.01,2014-01-13 19:00:00,
2014-01-13 14:05:00,79.7,68.2,30.02,SW,221,3.0,3.0,68,0.00,,---,0.00,VWS V14.01,2014-01-13 19:05:00,
2014-01-13 14:10:00,79.7,67.8,30.02,SW,219,2.0,4.0,67,0.00,,---,0.00,VWS V14.01,2014-01-13 19:10:00,
2014-01-13 14:15:00,80.2,68.7,30.02,SSE,154,1.0,3.0,68,0.00,,---,0.00,VWS V14.01,2014-01-13 19:15:00,
2014-01-13 14:20:00,80.6,68.6,30.02,SSE,147,0.0,1.0,67,0.00,,---,0.00,VWS V14.01,2014-01-13 19:20:00,
2014-01-13 14:25:00,81.0,69.0,30.02,SSW,202,2.0,2.0,67,0.00,,---,0.00,VWS V14.01,2014-01-13 19:25:00,
2014-01-13 14:30:00,81.2,68.8,30.01,SW,229,1.0,2.0,66,0.00,,---,0.00,VWS V14.01,2014-01-13 19:30:00,
2014-01-13 14:35:00,80.7,68.3,30.01,SSE,156,1.0,2.0,66,0.00,,---,0.00,VWS V14.01,2014-01-13 19:35:00,
2014-01-13 14:40:00,80.4,68.4,30.01,SSW,195,1.0,1.0,67,0.00,,---,0.00,VWS V14.01,2014-01-13 19:40:00,
2014-01-13 14:45:00,80.4,68.9,30.01,SSW,193,2.0,2.0,68,0.00,,---,0.00,VWS V14.01,2014-01-13 19:45:00,
2014-01-13 14:50:00,80.2,68.7,30.01,SSW,209,1.0,1.0,68,0.00,,---,0.00,VWS V14.01,2014-01-13 19:50:00,
2014-01-13 14:55:00,79.6,68.5,30.00,South,191,0.0,3.0,69,0.00,,---,0.00,VWS V14.01,2014-01-13 19:55:00,
2014-01-13 15:00:00,79.3,68.7,30.01,SSW,202,1.0,1.0,70,0.00,,---,0.00,VWS V14.01,2014-01-13 20:00:00,
2014-01-13 15:05:00,79.1,68.5,30.01,SW,217,2.0,3.0,70,0.00,,---,0.00,VWS V14.01,2014-01-13 20:05:00,
2014-01-13 15:10:00,78.8,68.6,30.01,SSW,200,2.0,3.0,71,0.00,,---,0.00,VWS V14.01,2014-01-13 20:10:00,
2014-01-13 15:15:00,78.7,68.5,30.01,SSW,204,2.0,2.0,71,0.00,,---,0.00,VWS V14.01,2014-01-13 20:15:00,
2014-01-13 15:20:00,78.6,68.8,30.01,SE,139,2.0,2.0,72,0.00,,---,0.00,VWS V14.01,2014-01-13 20:20:00,
2014-01-13 15:25:00,78.6,68.4,30.01,South,191,1.0,2.0,71,0.00,,---,0.00,VWS V14.01,2014-01-13 20:25:00,
2014-01-13 15:30:00,78.5,68.7,30.01,SSW,207,1.0,1.0,72,0.00,,---,0.00,VWS V14.01,2014-01-13 20:30:00,
2014-01-13 15:35:00,78.5,68.7,30.01,SSW,192,0.0,2.0,72,0.00,,---,0.00,VWS V14.01,2014-01-13 20:35:00,
2014-01-13 15:40:00,78.4,68.6,30.01,SSW,202,3.0,3.0,72,0.00,,---,0.00,VWS V14.01,2014-01-13 20:40:00,
2014-01-13 15:45:00,78.2,68.4,30.01,South,178,0.0,2.0,72,0.00,,---,0.00,VWS V14.01,2014-01-13 20:45:00,
2014-01-13 15:50:00,77.9,68.6,30.01,SW,216,1.0,2.0,73,0.00,,---,0.00,VWS V14.01,2014-01-13 20:50:00,
2014-01-13 15:55:00,77.6,68.7,30.01,South,172,0.0,0.0,74,0.00,,---,0.00,VWS V14.01,2014-01-13 20:55:00,
2014-01-13 16:00:00,77.5,68.6,30.02,WSW,240,1.0,3.0,74,0.00,,---,0.00,VWS V14.01,2014-01-13 21:00:00,
2014-01-13 16:05:00,77.3,68.4,30.01,SW,233,1.0,1.0,74,0.00,,---,0.00,VWS V14.01,2014-01-13 21:05:00,
2014-01-13 16:10:00,77.3,68.8,30.01,SSE,158,0.0,0.0,75,0.00,,---,0.00,VWS V14.01,2014-01-13 21:10:00,
2014-01-13 16:15:00,77.6,69.1,30.01,SW,233,2.0,3.0,75,0.00,,---,0.00,VWS V14.01,2014-01-13 21:15:00,
2014-01-13 16:20:00,77.8,68.9,30.01,SSE,162,0.0,1.0,74,0.00,,---,0.00,VWS V14.01,2014-01-13 21:20:00,
2014-01-13 16:25:00,78.0,69.1,30.01,SW,236,1.0,1.0,74,0.00,,---,0.00,VWS V14.01,2014-01-13 21:25:00,
2014-01-13 16:30:00,78.1,68.8,30.01,SSW,210,2.0,2.0,73,0.00,,---,0.00,VWS V14.01,2014-01-13 21:30:00,
2014-01-13 16:35:00,77.9,68.9,30.01,SSW,207,0.0,2.0,74,0.00,,---,0.00,VWS V14.01,2014-01-13 21:35:00,
2014-01-13 16:40:00,77.7,68.8,30.01,SSE,159,0.0,1.0,74,0.00,,---,0.00,VWS V14.01,2014-01-13 21:40:00,
2014-01-13 16:45:00,77.6,68.7,30.01,SSW,194,0.0,1.0,74,0.00,,---,0.00,VWS V14.01,2014-01-13 21:45:00,
2014-01-13 16:50:00,77.4,68.9,30.01,SW,229,1.0,1.0,75,0.00,,---,0.00,VWS V14.01,2014-01-13 21:50:00,
2014-01-13 16:55:00,77.0,68.9,30.01,SE,141,0.0,1.0,76,0.00,,---,0.00,VWS V14.01,2014-01-13 21:55:00,
2014-01-13 17:00:00,76.8,69.1,30.01,SW,226,1.0,1.0,77,0.00,,---,0.00,VWS V14.01,2014-01-13 22:00:00,
2014-01-13 17:05:00,76.6,68.9,30.01,SSW,212,0.0,0.0,77,0.00,,---,0.00,VWS V14.01,2014-01-13 22:05:00,
2014-01-13 17:10:00,76.4,68.7,30.00,South,185,0.0,1.0,77,0.00,,---,0.00,VWS V14.01,2014-01-13 22:10:00,
2014-01-13 17:15:00,76.3,68.9,30.00,South,170,0.0,0.0,78,0.00,,---,0.00,VWS V14.01,2014-01-13 22:15:00,
2014-01-13 17:20:00,76.1,68.8,30.00,SSW,206,0.0,0.0,78,0.00,,---,0.00,VWS V14.01,2014-01-13 22:20:00,
2014-01-13 17:25:00,75.9,68.6,30.00,SW,216,1.0,1.0,78,0.00,,---,0.00,VWS V14.01,2014-01-13 22:25:00,
2014-01-13 17:30:00,75.7,68.7,30.00,SSW,195,0.0,1.0,79,0.00,,---,0.00,VWS V14.01,2014-01-13 22:30:00,
2014-01-13 17:35:00,75.4,68.4,30.00,South,184,0.0,0.0,79,0.00,,---,0.00,VWS V14.01,2014-01-13 22:35:00,
2014-01-13 17:40:00,75.2,68.6,30.00,SW,217,0.0,0.0,80,0.00,,---,0.00,VWS V14.01,2014-01-13 22:40:00,
2014-01-13 17:45:00,75.0,68.4,30.00,SW,219,1.0,1.0,80,0.00,,---,0.00,VWS V14.01,2014-01-13 22:45:00,
2014-01-13 17:50:00,74.8,68.6,30.00,SSW,204,0.0,1.0,81,0.00,,---,0.00,VWS V14.01,2014-01-13 22:50:00,
2014-01-13 17:55:00,74.6,68.4,30.01,South,181,0.0,0.0,81,0.00,,---,0.00,VWS V14.01,2014-01-13 22:55:00,
2014-01-13 18:00:00,74.4,68.6,30.01,SSW,198,0.0,0.0,82,0.00,,---,0.00,VWS V14.01,2014-01-13 23:00:00,
2014-01-13 18:05:00,74.2,68.4,30.01,South,179,0.0,0.0,82,0.00,,---,0.00,VWS V14.01,2014-01-13 23:05:00,
2014-01-13 18:10:00,74.0,68.5,30.00,SSW,206,0.0,0.0,83,0.00,,---,0.00,VWS V14.01,2014-01-13 23:10:00,
2014-01-13 18:15:00,73.7,68.2,30.00,SE,143,0.0,0.0,83,0.00,,---,0.00,VWS V14.01,2014-01-13 23:15:00,
2014-01-13 18:20:00,73.4,68.3,30.00,SSE,150,0.0,0.0,84,0.00,,---,0.00,VWS V14.01,2014-01-13 23:20:00,
2014-01-13 18:25:00,73.2,68.4,30.00,South,191,0.0,0.0,85,0.00,,---,0.00,VWS V14.01,2014-01-13 23:25:00,
2014-01-13 18:30:00,73.0,68.2,30.00,South,188,0.0,0.0,85,0.00,,---,0.00,VWS V14.01,2014-01-13 23:30:00,
2014-01-13 18:35:00,72.9,68.5,30.00,SSW,210,0.0,0.0,86,0.00,,---,0.00,VWS V14.01,2014-01-13 23:35:00,
2014-01-13 18:40:00,72.7,68.3,30.00,SSW,210,1.0,1.0,86,0.00,,---,0.00,VWS V14.01,2014-01-13 23:40:00,
2014-01-13 18:45:00,72.6,68.5,30.00,South,183,0.0,0.0,87,0.00,,---,0.00,VWS V14.01,2014-01-13 23:45:00,
2014-01-13 18:50:00,72.4,68.3,30.00,SSW,213,0.0,0.0,87,0.00,,---,0.00,VWS V14.01,2014-01-13 23:50:00,
2014-01-13 18:55:00,72.3,68.6,30.01,SSW,201,0.0,0.0,88,0.00,,---,0.00,VWS V14.01,2014-01-13 23:55:00,
2014-01-13 19:00:00,72.2,68.4,30.01,SSE,167,0.0,1.0,88,0.00,,---,0.00,VWS V14.01,2014-01-14 00:00:00,
2014-01-13 19:05:00,72.0,68.6,30.01,South,171,1.0,1.0,89,0.00,,---,0.00,VWS V14.01,2014-01-14 00:05:00,
2014-01-13 19:10:00,72.1,68.7,30.01,SE,134,0.0,1.0,89,0.00,,---,0.00,VWS V14.01,2014-01-14 00:10:00,
2014-01-13 19:15:00,72.1,68.7,30.01,South,173,0.0,1.0,89,0.00,,---,0.00,VWS V14.01,2014-01-14 00:15:00,
2014-01-13 19:20:00,72.1,68.7,30.00,SSE,147,0.0,0.0,89,0.00,,---,0.00,VWS V14.01,2014-01-14 00:20:00,
2014-01-13 19:25:00,72.1,68.7,30.01,SSE,158,0.0,0.0,89,0.00,,---,0.00,VWS V14.01,2014-01-14 00:25:00,
2014-01-13 19:30:00,72.0,68.9,30.01,SW,214,1.0,1.0,90,0.00,,---,0.00,VWS V14.01,2014-01-14 00:30:00,
2014-01-13 19:35:00,71.9,68.8,30.01,SW,214,1.0,1.0,90,0.00,,---,0.00,VWS V14.01,2014-01-14 00:35:00,
2014-01-13 19:40:00,71.7,68.6,30.01,SE,146,0.0,0.0,90,0.00,,---,0.00,VWS V14.01,2014-01-14 00:40:00,
2014-01-13 19:45:00,71.6,68.5,30.01,SE,143,0.0,0.0,90,0.00,,---,0.00,VWS V14.01,2014-01-14 00:45:00,
2014-01-13 19:50:00,71.5,68.7,30.01,SSW,206,1.0,1.0,91,0.00,,---,0.00,VWS V14.01,2014-01-14 00:50:00,
2014-01-13 19:55:00,71.4,68.6,30.01,SSW,197,0.0,0.0,91,0.00,,---,0.00,VWS V14.01,2014-01-14 00:55:00,
2014-01-13 20:00:00,71.2,68.4,30.01,SE,136,0.0,0.0,91,0.00,,---,0.00,VWS V14.01,2014-01-14 01:00:00,
2014-01-13 20:05:00,71.1,68.3,30.00,SSE,164,0.0,0.0,91,0.00,,---,0.00,VWS V14.01,2014-01-14 01:05:00,
2014-01-13 20:10:00,71.0,68.6,30.01,SSE,167,0.0,1.0,92,0.00,,---,0.00,VWS V14.01,2014-01-14 01:10:00,
2014-01-13 20:15:00,70.9,68.5,30.01,SE,134,0.0,1.0,92,0.00,,---,0.00,VWS V14.01,2014-01-14 01:15:00,
2014-01-13 20:20:00,70.9,68.5,30.01,SSW,192,0.0,1.0,92,0.00,,---,0.00,VWS V14.01,2014-01-14 01:20:00,
2014-01-13 20:25:00,70.8,68.4,30.00,South,176,0.0,0.0,92,0.00,,---,0.00,VWS V14.01,2014-01-14 01:25:00,
2014-01-13 20:30:00,70.7,68.3,30.01,South,176,0.0,0.0,92,0.00,,---,0.00,VWS V14.01,2014-01-14 01:30:00,
2014-01-13 20:35:00,70.7,68.3,30.01,SSE,162,0.0,1.0,92,0.00,,---,0.00,VWS V14.01,2014-01-14 01:35:00,
2014-01-13 20:40:00,70.8,68.4,30.00,SE,139,0.0,0.0,92,0.00,,---,0.00,VWS V14.01,2014-01-14 01:40:00,
2014-01-13 20:45:00,70.7,68.6,30.01,South,173,0.0,1.0,93,0.00,,---,0.00,VWS V14.01,2014-01-14 01:45:00,
2014-01-13 20:50:00,70.8,68.4,30.01,SE,145,0.0,1.0,92,0.00,,---,0.00,VWS V14.01,2014-01-14 01:50:00,
2014-01-13 20:55:00,70.7,68.6,30.01,South,176,0.0,0.0,93,0.00,,---,0.00,VWS V14.01,2014-01-14 01:55:00,
2014-01-13 21:00:00,70.8,68.7,30.01,South,186,0.0,0.0,93,0.00,,---,0.00,VWS V14.01,2014-01-14 02:00:00,
2014-01-13 21:05:00,70.8,68.7,30.02,SSE,162,0.0,1.0,93,0.00,,---,0.00,VWS V14.01,2014-01-14 02:05:00,
2014-01-13 21:10:00,70.9,68.8,30.02,SSW,200,0.0,0.0,93,0.00,,---,0.00,VWS V14.01,2014-01-14 02:10:00,
2014-01-13 21:15:00,70.9,68.8,30.01,South,191,0.0,0.0,93,0.00,,---,0.00,VWS V14.01,2014-01-14 02:15:00,
2014-01-13 21:20:00,70.9,68.8,30.01,SSE,151,0.0,0.0,93,0.00,,---,0.00,VWS V14.01,2014-01-14 02:20:00,
2014-01-13 21:25:00,71.0,68.9,30.01,SSE,155,0.0,0.0,93,0.00,,---,0.00,VWS V14.01,2014-01-14 02:25:00,
2014-01-13 21:30:00,71.1,68.7,30.01,SE,128,1.0,1.0,92,0.00,,---,0.00,VWS V14.01,2014-01-14 02:30:00,
2014-01-13 21:35:00,71.2,68.8,30.01,SSE,162,0.0,0.0,92,0.00,,---,0.00,VWS V14.01,2014-01-14 02:35:00,
2014-01-13 21:40:00,71.2,68.8,30.01,SSE,148,0.0,0.0,92,0.00,,---,0.00,VWS V14.01,2014-01-14 02:40:00,
2014-01-13 21:45:00,71.2,68.8,30.01,South,186,0.0,0.0,92,0.00,,---,0.00,VWS V14.01,2014-01-14 02:45:00,
2014-01-13 21:50:00,71.3,68.9,30.01,SE,135,0.0,0.0,92,0.00,,---,0.00,VWS V14.01,2014-01-14 02:50:00,
2014-01-13 21:55:00,71.4,69.0,30.01,SSE,147,0.0,0.0,92,0.00,,---,0.00,VWS V14.01,2014-01-14 02:55:00,
2014-01-13 22:00:00,71.4,69.0,30.01,SW,215,0.0,0.0,92,0.00,,---,0.00,VWS V14.01,2014-01-14 03:00:00,
2014-01-13 22:05:00,71.4,69.0,30.01,South,183,0.0,0.0,92,0.00,,---,0.00,VWS V14.01,2014-01-14 03:05:00,
2014-01-13 22:10:00,71.5,69.1,30.01,SSE,148,0.0,0.0,92,0.00,,---,0.00,VWS V14.01,2014-01-14 03:10:00,
2014-01-13 22:15:00,71.6,69.2,30.01,SSE,150,0.0,0.0,92,0.00,,---,0.00,VWS V14.01,2014-01-14 03:15:00,
2014-01-13 22:20:00,71.6,69.2,30.01,SE,134,1.0,1.0,92,0.00,,---,0.00,VWS V14.01,2014-01-14 03:20:00,
2014-01-13 22:25:00,71.8,69.3,30.01,SE,131,0.0,0.0,92,0.00,,---,0.00,VWS V14.01,2014-01-14 03:25:00,
2014-01-13 22:30:00,71.8,69.3,30.01,SE,143,0.0,0.0,92,0.00,,---,0.00,VWS V14.01,2014-01-14 03:30:00,
2014-01-13 22:35:00,71.9,69.1,30.00,SE,129,0.0,0.0,91,0.00,,---,0.00,VWS V14.01,2014-01-14 03:35:00,
2014-01-13 22:40:00,71.9,69.1,30.00,SSE,148,0.0,0.0,91,0.00,,---,0.00,VWS V14.01,2014-01-14 03:40:00,
2014-01-13 22:45:00,71.9,69.1,30.00,SE,125,0.0,0.0,91,0.00,,---,0.00,VWS V14.01,2014-01-14 03:45:00,
2014-01-13 22:50:00,72.0,69.2,30.00,SE,145,0.0,0.0,91,0.00,,---,0.00,VWS V14.01,2014-01-14 03:50:00,
2014-01-13 22:55:00,72.0,69.2,30.00,SE,136,0.0,0.0,91,0.00,,---,0.00,VWS V14.01,2014-01-14 03:55:00,
2014-01-13 23:00:00,72.0,69.2,29.99,SE,142,0.0,0.0,91,0.00,,---,0.00,VWS V14.01,2014-01-14 04:00:00,
2014-01-13 23:05:00,72.0,69.2,29.99,SE,131,0.0,1.0,91,0.00,,---,0.00,VWS V14.01,2014-01-14 04:05:00,
2014-01-13 23:10:00,72.0,69.2,29.99,ESE,108,0.0,0.0,91,0.00,,---,0.00,VWS V14.01,2014-01-14 04:10:00,
2014-01-13 23:15:00,71.9,69.1,29.99,SE,130,1.0,1.0,91,0.00,,---,0.00,VWS V14.01,2014-01-14 04:15:00,
2014-01-13 23:20:00,71.9,69.1,29.98,SE,125,0.0,1.0,91,0.00,,---,0.00,VWS V14.01,2014-01-14 04:20:00,
2014-01-13 23:25:00,71.9,69.1,29.98,ESE,118,0.0,0.0,91,0.00,,---,0.00,VWS V14.01,2014-01-14 04:25:00,
2014-01-13 23:30:00,71.9,69.4,29.98,SE,133,0.0,0.0,92,0.00,,---,0.00,VWS V14.01,2014-01-14 04:30:00,
2014-01-13 23:35:00,71.9,69.4,29.98,SE,141,0.0,1.0,92,0.00,,---,0.00,VWS V14.01,2014-01-14 04:35:00,
2014-01-13 23:40:00,71.8,69.3,29.98,South,191,0.0,0.0,92,0.00,,---,0.00,VWS V14.01,2014-01-14 04:40:00,
2014-01-13 23:45:00,71.8,69.3,29.98,SSW,194,0.0,0.0,92,0.00,,---,0.00,VWS V14.01,2014-01-14 04:45:00,
2014-01-13 23:50:00,71.7,69.3,29.98,South,174,0.0,0.0,92,0.00,,---,0.00,VWS V14.01,2014-01-14 04:50:00,
2014-01-13 23:55:00,71.6,69.2,29.97,SSE,158,0.0,0.0,92,0.00,,---,0.00,VWS V14.01,2014-01-14 04:55:00,